Time,TemperatureF,DewpointF,PressureIn,WindDirection,WindDirectionDegrees,WindSpeedMPH,WindSpeedGustMPH,Humidity,HourlyPrecipIn,Conditions,Clouds,dailyrainin,SoftwareType,DateUTC
2013-02-18 00:00:00,35.0,2.7,30.10,ENE,64,1.0,4.0,25,0.00,,,0.92,Wunderground v.1.15,2013-02-18 08:00:00,
2013-02-18 00:05:00,34.9,2.6,30.10,NE,40,1.0,4.0,25,0.00,,,0.92,Wunderground v.1.15,2013-02-18 08:05:00,
2013-02-18 00:10:00,34.8,2.5,30.10,West,280,1.0,4.0,25,0.00,,,0.92,Wunderground v.1.15,2013-02-18 08:10:00,
2013-02-18 00:15:00,34.8,2.5,30.10,South,188,1.0,4.0,25,0.00,,,0.92,Wunderground v.1.15,2013-02-18 08:15:00,
2013-02-18 00:20:00,34.7,2.4,30.10,SW,231,1.0,1.0,25,0.00,,,0.92,Wunderground v.1.15,2013-02-18 08:20:00,
2013-02-18 00:25:00,34.8,1.6,30.09,West,266,1.0,4.0,24,0.00,,,0.92,Wunderground v.1.15,2013-02-18 08:25:00,
2013-02-18 00:30:00,34.7,2.4,30.09,West,262,1.0,4.0,25,0.00,,,0.00,Wunderground v.1.15,2013-02-18 08:30:00,
2013-02-18 00:35:00,34.7,3.2,30.09,WSW,238,1.0,4.0,26,0.00,,,0.00,Wunderground v.1.15,2013-02-18 08:35:00,
2013-02-18 00:40:00,34.7,2.4,30.09,ENE,57,1.0,4.0,25,0.00,,,0.00,Wunderground v.1.15,2013-02-18 08:40:00,
2013-02-18 00:45:00,34.9,1.7,30.09,ENE,65,1.0,4.0,24,0.00,,,0.00,Wunderground v.1.15,2013-02-18 08:45:00,
2013-02-18 00:55:00,34.9,2.6,30.09,NNE,12,2.0,4.0,25,0.00,,,0.00,Wunderground v.1.15,2013-02-18 08:55:00,
2013-02-18 01:00:00,34.9,3.4,30.08,NNE,25,2.0,2.0,26,0.00,,,0.00,Wunderground v.1.15,2013-02-18 09:00:00,
2013-02-18 01:05:00,34.7,5.6,30.08,NE,34,2.0,4.0,29,0.00,,,0.00,Wunderground v.1.15,2013-02-18 09:05:00,
2013-02-18 01:10:00,34.6,5.5,30.08,West,281,1.0,1.0,29,0.00,,,0.00,Wunderground v.1.15,2013-02-18 09:10:00,
2013-02-18 01:15:00,34.3,6.7,30.08,SSE,160,1.0,4.0,31,0.00,,,0.00,Wunderground v.1.15,2013-02-18 09:15:00,
2013-02-18 01:20:00,34.3,6.0,30.08,NW,318,1.0,4.0,30,0.00,,,0.00,Wunderground v.1.15,2013-02-18 09:20:00,
2013-02-18 01:25:00,34.1,5.1,30.08,NNE,13,2.0,4.0,29,0.00,,,0.00,Wunderground v.1.15,2013-02-18 09:25:00,
2013-02-18 01:35:00,33.9,4.9,30.07,SW,225,1.0,4.0,29,0.00,,,0.00,Wunderground v.1.15,2013-02-18 09:35:00,
2013-02-18 01:40:00,33.8,4.1,30.07,WNW,284,1.0,4.0,28,0.00,,,0.00,Wunderground v.1.15,2013-02-18 09:40:00,
2013-02-18 01:45:00,34.0,2.6,30.07,NE,42,1.0,4.0,26,0.00,,,0.00,Wunderground v.1.15,2013-02-18 09:45:00,
2013-02-18 01:50:00,34.1,1.9,30.07,SSE,156,2.0,2.0,25,0.00,,,0.00,Wunderground v.1.15,2013-02-18 09:50:00,
2013-02-18 01:55:00,34.3,1.2,30.07,WNW,298,2.0,4.0,24,0.00,,,0.00,Wunderground v.1.15,2013-02-18 09:55:00,
2013-02-18 02:05:00,34.5,3.1,30.07,ESE,113,2.0,4.0,26,0.00,,,0.00,Wunderground v.1.15,2013-02-18 10:05:00,
2013-02-18 02:10:00,34.7,6.4,30.07,WNW,283,2.0,2.0,30,0.00,,,0.00,Wunderground v.1.15,2013-02-18 10:10:00,
2013-02-18 02:15:00,34.7,9.8,30.07,SW,227,1.0,4.0,35,0.00,,,0.00,Wunderground v.1.15,2013-02-18 10:15:00,
2013-02-18 02:20:00,34.8,12.3,30.07,West,266,1.0,4.0,39,0.00,,,0.00,Wunderground v.1.15,2013-02-18 10:20:00,
2013-02-18 02:25:00,34.7,13.9,30.07,WNW,301,1.0,4.0,42,0.00,,,0.00,Wunderground v.1.15,2013-02-18 10:25:00,
2013-02-18 02:30:00,34.6,13.3,30.06,North,4,1.0,1.0,41,0.00,,,0.00,Wunderground v.1.15,2013-02-18 10:30:00,
2013-02-18 02:35:00,34.4,12.5,30.06,NW,326,1.0,2.0,40,0.00,,,0.00,Wunderground v.1.15,2013-02-18 10:35:00,
2013-02-18 02:40:00,34.3,10.1,30.06,NE,36,1.0,4.0,36,0.00,,,0.00,Wunderground v.1.15,2013-02-18 10:40:00,
2013-02-18 02:45:00,34.2,7.4,30.06,NW,323,1.0,4.0,32,0.00,,,0.00,Wunderground v.1.15,2013-02-18 10:45:00,
2013-02-18 02:50:00,34.2,4.4,30.06,West,264,1.0,4.0,28,0.00,,,0.00,Wunderground v.1.15,2013-02-18 10:50:00,
2013-02-18 02:55:00,34.2,3.6,30.06,West,264,0.0,4.0,27,0.00,,,0.00,Wunderground v.1.15,2013-02-18 10:55:00,
2013-02-18 03:00:00,34.0,3.5,30.06,SE,137,0.0,4.0,27,0.00,,,0.00,Wunderground v.1.15,2013-02-18 11:00:00,
2013-02-18 03:05:00,34.0,2.6,30.05,SW,219,1.0,4.0,26,0.00,,,0.00,Wunderground v.1.15,2013-02-18 11:05:00,
2013-02-18 03:10:00,34.0,2.6,30.05,SSW,198,1.0,4.0,26,0.00,,,0.00,Wunderground v.1.15,2013-02-18 11:10:00,
2013-02-18 03:15:00,33.9,4.2,30.05,WSW,245,1.0,4.0,28,0.00,,,0.00,Wunderground v.1.15,2013-02-18 11:15:00,
2013-02-18 03:20:00,33.8,4.8,30.05,WSW,252,1.0,1.0,29,0.00,,,0.00,Wunderground v.1.15,2013-02-18 11:20:00,
2013-02-18 03:25:00,33.8,4.8,30.05,SW,232,0.0,4.0,29,0.00,,,0.00,Wunderground v.1.15,2013-02-18 11:25:00,
2013-02-18 03:30:00,33.8,4.8,30.05,NNW,344,0.0,4.0,29,0.00,,,0.00,Wunderground v.1.15,2013-02-18 11:30:00,
2013-02-18 03:35:00,33.7,4.8,30.05,SSE,167,1.0,4.0,29,0.00,,,0.00,Wunderground v.1.15,2013-02-18 11:35:00,
2013-02-18 03:40:00,33.8,5.6,30.04,West,270,1.0,4.0,30,0.00,,,0.00,Wunderground v.1.15,2013-02-18 11:40:00,
2013-02-18 03:45:00,33.8,6.3,30.04,SSW,200,1.0,4.0,31,0.00,,,0.00,Wunderground v.1.15,2013-02-18 11:45:00,
2013-02-18 03:50:00,33.8,6.3,30.04,NE,47,1.0,4.0,31,0.00,,,0.00,Wunderground v.1.15,2013-02-18 11:50:00,
2013-02-18 03:55:00,33.8,6.3,30.04,WSW,249,1.0,4.0,31,0.00,,,0.00,Wunderground v.1.15,2013-02-18 11:55:00,
2013-02-18 04:00:00,33.7,6.9,30.04,WSW,257,1.0,4.0,32,0.00,,,0.00,Wunderground v.1.15,2013-02-18 12:00:00,
2013-02-18 04:05:00,33.7,6.2,30.04,WNW,303,1.0,4.0,31,0.00,,,0.00,Wunderground v.1.15,2013-02-18 12:05:00,
2013-02-18 04:10:00,33.7,5.5,30.03,NNE,16,1.0,4.0,30,0.00,,,0.00,Wunderground v.1.15,2013-02-18 12:10:00,
2013-02-18 04:20:00,33.5,4.6,30.03,WNW,282,1.0,4.0,29,0.00,,,0.00,Wunderground v.1.15,2013-02-18 12:20:00,
2013-02-18 04:25:00,33.4,4.5,30.03,West,276,1.0,4.0,29,0.00,,,0.00,Wunderground v.1.15,2013-02-18 12:25:00,
2013-02-18 04:30:00,33.5,3.8,30.03,WNW,295,1.0,4.0,28,0.00,,,0.00,Wunderground v.1.15,2013-02-18 12:30:00,
2013-02-18 04:35:00,33.5,2.2,30.02,WNW,288,1.0,4.0,26,0.00,,,0.00,Wunderground v.1.15,2013-02-18 12:35:00,
2013-02-18 04:40:00,33.5,2.2,30.02,SW,218,1.0,4.0,26,0.00,,,0.00,Wunderground v.1.15,2013-02-18 12:40:00,
2013-02-18 04:45:00,33.5,1.4,30.02,West,266,1.0,4.0,25,0.00,,,0.00,Wunderground v.1.15,2013-02-18 12:45:00,
2013-02-18 04:55:00,33.3,1.2,30.02,West,260,1.0,4.0,25,0.00,,,0.00,Wunderground v.1.15,2013-02-18 12:55:00,
2013-02-18 05:00:00,33.3,2.0,30.02,SW,236,1.0,4.0,26,0.00,,,0.00,Wunderground v.1.15,2013-02-18 13:00:00,
2013-02-18 05:05:00,33.3,2.0,30.02,West,278,1.0,4.0,26,0.00,,,0.00,Wunderground v.1.15,2013-02-18 13:05:00,
2013-02-18 05:10:00,33.2,2.0,30.02,West,264,1.0,4.0,26,0.00,,,0.00,Wunderground v.1.15,2013-02-18 13:10:00,
2013-02-18 05:15:00,33.2,2.0,30.02,West,267,1.0,4.0,26,0.00,,,0.00,Wunderground v.1.15,2013-02-18 13:15:00,
2013-02-18 05:20:00,33.2,1.1,30.01,WSW,253,1.0,4.0,25,0.00,,,0.00,Wunderground v.1.15,2013-02-18 13:20:00,
2013-02-18 05:25:00,33.3,1.2,30.01,WSW,257,1.0,4.0,25,0.00,,,0.00,Wunderground v.1.15,2013-02-18 13:25:00,
2013-02-18 05:30:00,33.2,1.1,30.01,WSW,248,0.0,4.0,25,0.00,,,0.00,Wunderground v.1.15,2013-02-18 13:30:00,
2013-02-18 05:35:00,33.2,1.1,30.01,West,274,1.0,4.0,25,0.00,,,0.00,Wunderground v.1.15,2013-02-18 13:35:00,
2013-02-18 05:40:00,33.1,1.9,30.01,West,274,0.0,4.0,26,0.00,,,0.00,Wunderground v.1.15,2013-02-18 13:40:00,
2013-02-18 05:45:00,32.9,1.7,30.01,West,274,0.0,4.0,26,0.00,,,0.00,Wunderground v.1.15,2013-02-18 13:45:00,
2013-02-18 05:50:00,32.7,1.5,30.00,West,274,0.0,4.0,26,0.00,,,0.00,Wunderground v.1.15,2013-02-18 13:50:00,
2013-02-18 05:55:00,32.6,1.4,30.00,West,274,0.0,4.0,26,0.00,,,0.00,Wunderground v.1.15,2013-02-18 13:55:00,
2013-02-18 06:00:00,32.5,0.5,30.00,West,281,0.0,4.0,25,0.00,,,0.00,Wunderground v.1.15,2013-02-18 14:00:00,
2013-02-18 06:05:00,32.5,0.5,30.00,West,277,1.0,4.0,25,0.00,,,0.00,Wunderground v.1.15,2013-02-18 14:05:00,
2013-02-18 06:10:00,32.6,-1.2,30.00,WSW,249,1.0,4.0,23,0.00,,,0.00,Wunderground v.1.15,2013-02-18 14:10:00,
2013-02-18 06:15:00,32.5,-1.3,30.00,West,269,1.0,4.0,23,0.00,,,0.00,Wunderground v.1.15,2013-02-18 14:15:00,
2013-02-18 06:20:00,32.5,-1.3,29.99,West,262,1.0,4.0,23,0.00,,,0.00,Wunderground v.1.15,2013-02-18 14:20:00,
2013-02-18 06:25:00,32.5,-1.3,29.99,West,270,1.0,4.0,23,0.00,,,0.00,Wunderground v.1.15,2013-02-18 14:25:00,
2013-02-18 06:30:00,32.4,-1.4,29.99,WSW,256,1.0,4.0,23,0.00,,,0.00,Wunderground v.1.15,2013-02-18 14:30:00,
2013-02-18 06:35:00,32.3,-1.4,29.99,WSW,243,0.0,4.0,23,0.00,,,0.00,Wunderground v.1.15,2013-02-18 14:35:00,
2013-02-18 06:40:00,32.3,-1.4,29.99,WSW,255,0.0,4.0,23,0.00,,,0.00,Wunderground v.1.15,2013-02-18 14:40:00,
2013-02-18 06:45:00,32.3,-1.4,29.99,WSW,255,0.0,4.0,23,0.00,,,0.00,Wunderground v.1.15,2013-02-18 14:45:00,
2013-02-18 06:50:00,32.4,-2.3,29.99,West,268,1.0,1.0,22,0.00,,,0.00,Wunderground v.1.15,2013-02-18 14:50:00,
2013-02-18 06:55:00,32.4,-2.3,29.99,West,269,0.0,4.0,22,0.00,,,0.00,Wunderground v.1.15,2013-02-18 14:55:00,
2013-02-18 07:00:00,32.4,-2.3,29.99,West,268,0.0,4.0,22,0.00,,,0.00,Wunderground v.1.15,2013-02-18 15:00:00,
2013-02-18 07:05:00,32.5,-2.2,29.99,West,268,0.0,4.0,22,0.00,,,0.00,Wunderground v.1.15,2013-02-18 15:05:00,
2013-02-18 07:10:00,32.6,-2.1,29.99,West,267,0.0,4.0,22,0.00,,,0.00,Wunderground v.1.15,2013-02-18 15:10:00,
2013-02-18 07:15:00,32.8,-2.9,29.99,WSW,245,0.0,4.0,21,0.00,,,0.00,Wunderground v.1.15,2013-02-18 15:15:00,
2013-02-18 07:20:00,32.9,-2.8,29.99,WSW,247,1.0,4.0,21,0.00,,,0.00,Wunderground v.1.15,2013-02-18 15:20:00,
2013-02-18 07:25:00,33.0,-2.8,29.99,West,276,1.0,4.0,21,0.00,,,0.00,Wunderground v.1.15,2013-02-18 15:25:00,
2013-02-18 07:30:00,33.1,-2.7,29.99,WSW,249,1.0,4.0,21,0.00,,,0.00,Wunderground v.1.15,2013-02-18 15:30:00,
2013-02-18 07:35:00,33.2,-2.6,29.99,WNW,284,1.0,4.0,21,0.00,,,0.00,Wunderground v.1.15,2013-02-18 15:35:00,
2013-02-18 07:40:00,33.3,-2.5,29.99,West,263,1.0,4.0,21,0.00,,,0.00,Wunderground v.1.15,2013-02-18 15:40:00,
2013-02-18 07:45:00,33.4,-2.4,29.99,West,262,1.0,4.0,21,0.00,,,0.00,Wunderground v.1.15,2013-02-18 15:45:00,
2013-02-18 07:50:00,33.4,-2.4,29.99,ENE,72,1.0,1.0,21,0.00,,,0.00,Wunderground v.1.15,2013-02-18 15:50:00,
2013-02-18 07:55:00,33.4,-1.4,29.99,West,260,1.0,4.0,22,0.00,,,0.00,Wunderground v.1.15,2013-02-18 15:55:00,
2013-02-18 08:00:00,33.5,-0.4,29.99,WNW,291,1.0,4.0,23,0.00,,,0.00,Wunderground v.1.15,2013-02-18 16:00:00,
2013-02-18 08:05:00,33.6,-0.3,29.99,West,259,1.0,4.0,23,0.00,,,0.00,Wunderground v.1.15,2013-02-18 16:05:00,
2013-02-18 08:10:00,33.7,0.7,29.99,WSW,245,1.0,1.0,24,0.00,,,0.00,Wunderground v.1.15,2013-02-18 16:10:00,
2013-02-18 08:15:00,33.8,3.3,30.00,SW,236,1.0,4.0,27,0.00,,,0.00,Wunderground v.1.15,2013-02-18 16:15:00,
2013-02-18 08:20:00,34.0,5.8,29.99,SE,137,1.0,1.0,30,0.00,,,0.00,Wunderground v.1.15,2013-02-18 16:20:00,
2013-02-18 08:25:00,34.1,8.0,29.99,SW,221,1.0,3.0,33,0.00,,,0.00,Wunderground v.1.15,2013-02-18 16:25:00,
2013-02-18 08:30:00,34.3,11.3,29.99,WSW,253,1.0,4.0,38,0.00,,,0.00,Wunderground v.1.15,2013-02-18 16:30:00,
2013-02-18 08:35:00,34.5,14.3,29.99,WSW,241,1.0,4.0,43,0.00,,,0.00,Wunderground v.1.15,2013-02-18 16:35:00,
2013-02-18 08:40:00,34.8,17.1,29.99,WSW,255,1.0,4.0,48,0.00,,,0.00,Wunderground v.1.15,2013-02-18 16:40:00,
2013-02-18 08:45:00,34.9,19.0,29.99,SW,222,1.0,4.0,52,0.00,,,0.00,Wunderground v.1.15,2013-02-18 16:45:00,
2013-02-18 08:55:00,35.5,23.8,29.99,West,260,1.0,4.0,62,0.00,,,0.00,Wunderground v.1.15,2013-02-18 16:55:00,
2013-02-18 09:00:00,35.8,23.7,29.99,SW,229,0.0,4.0,61,0.00,,,0.00,Wunderground v.1.15,2013-02-18 17:00:00,
2013-02-18 09:05:00,35.9,24.5,29.99,NNW,329,0.0,4.0,63,0.00,,,0.00,Wunderground v.1.15,2013-02-18 17:05:00,
2013-02-18 09:10:00,36.1,24.3,29.98,West,280,1.0,4.0,62,0.00,,,0.00,Wunderground v.1.15,2013-02-18 17:10:00,
2013-02-18 09:20:00,36.2,26.3,29.98,North,9,1.0,4.0,67,0.00,,,0.00,Wunderground v.1.15,2013-02-18 17:20:00,
2013-02-18 09:25:00,36.2,25.2,29.98,West,260,1.0,4.0,64,0.00,,,0.00,Wunderground v.1.15,2013-02-18 17:25:00,
2013-02-18 09:30:00,36.2,25.6,29.97,East,79,1.0,1.0,65,0.00,,,0.00,Wunderground v.1.15,2013-02-18 17:30:00,
2013-02-18 09:35:00,36.2,25.2,29.98,North,5,1.0,4.0,64,0.00,,,0.00,Wunderground v.1.15,2013-02-18 17:35:00,
2013-02-18 09:40:00,36.3,23.3,29.98,East,98,1.0,4.0,59,0.00,,,0.00,Wunderground v.1.15,2013-02-18 17:40:00,
2013-02-18 09:50:00,36.5,28.0,29.97,SW,221,1.0,4.0,71,0.00,,,0.00,Wunderground v.1.15,2013-02-18 17:50:00,
2013-02-18 09:55:00,36.8,30.3,29.97,West,259,2.0,4.0,77,0.00,,,0.00,Wunderground v.1.15,2013-02-18 17:55:00,
2013-02-18 10:00:00,37.1,30.9,29.97,NNW,333,2.0,2.0,78,0.00,,,0.00,Wunderground v.1.15,2013-02-18 18:00:00,
2013-02-18 10:05:00,37.2,30.3,29.97,West,280,1.0,4.0,76,0.00,,,0.00,Wunderground v.1.15,2013-02-18 18:05:00,
2013-02-18 10:10:00,37.4,30.8,29.97,West,271,1.0,1.0,77,0.00,,,0.00,Wunderground v.1.15,2013-02-18 18:10:00,
2013-02-18 10:15:00,37.7,32.4,29.97,SSE,149,1.0,2.0,81,0.00,,,0.00,Wunderground v.1.15,2013-02-18 18:15:00,
2013-02-18 10:20:00,37.7,32.7,29.97,West,271,1.0,1.0,82,0.00,,,0.00,Wunderground v.1.15,2013-02-18 18:20:00,
2013-02-18 10:25:00,37.8,32.8,29.97,NNW,336,1.0,4.0,82,0.00,,,0.00,Wunderground v.1.15,2013-02-18 18:25:00,
2013-02-18 10:30:00,37.8,32.8,29.97,NE,49,1.0,4.0,82,0.00,,,0.00,Wunderground v.1.15,2013-02-18 18:30:00,
2013-02-18 10:35:00,37.7,32.7,29.97,NW,306,1.0,4.0,82,0.00,,,0.00,Wunderground v.1.15,2013-02-18 18:35:00,
2013-02-18 10:40:00,37.7,32.7,29.97,NNE,19,1.0,4.0,82,0.00,,,0.00,Wunderground v.1.15,2013-02-18 18:40:00,
2013-02-18 10:45:00,37.7,31.5,29.96,West,274,1.0,4.0,78,0.00,,,0.00,Wunderground v.1.15,2013-02-18 18:45:00,
2013-02-18 10:50:00,38.0,31.7,29.96,NW,312,0.0,4.0,78,0.00,,,0.00,Wunderground v.1.15,2013-02-18 18:50:00,
2013-02-18 10:55:00,38.1,32.5,29.96,West,266,0.0,4.0,80,0.00,,,0.00,Wunderground v.1.15,2013-02-18 18:55:00,
2013-02-18 11:00:00,38.4,33.1,29.96,WNW,300,1.0,1.0,81,0.00,,,0.00,Wunderground v.1.15,2013-02-18 19:00:00,
2013-02-18 11:05:00,38.6,33.9,29.96,West,262,1.0,4.0,83,0.00,,,0.00,Wunderground v.1.15,2013-02-18 19:05:00,
2013-02-18 11:10:00,38.8,34.1,29.96,NW,312,1.0,1.0,83,0.00,,,0.00,Wunderground v.1.15,2013-02-18 19:10:00,
2013-02-18 11:15:00,38.9,33.6,29.96,NW,309,0.0,4.0,81,0.00,,,0.00,Wunderground v.1.15,2013-02-18 19:15:00,
2013-02-18 11:20:00,38.8,34.1,29.96,West,269,1.0,4.0,83,0.00,,,0.00,Wunderground v.1.15,2013-02-18 19:20:00,
2013-02-18 11:25:00,38.8,33.5,29.96,WNW,290,1.0,4.0,81,0.00,,,0.00,Wunderground v.1.15,2013-02-18 19:25:00,
2013-02-18 11:30:00,38.7,34.0,29.96,West,281,0.0,4.0,83,0.00,,,0.00,Wunderground v.1.15,2013-02-18 19:30:00,
2013-02-18 11:35:00,38.5,33.2,29.96,NW,319,1.0,4.0,81,0.00,,,0.00,Wunderground v.1.15,2013-02-18 19:35:00,
2013-02-18 11:40:00,38.5,32.6,29.95,NNE,22,1.0,4.0,79,0.00,,,0.00,Wunderground v.1.15,2013-02-18 19:40:00,
2013-02-18 11:45:00,38.5,33.2,29.95,NNW,340,1.0,4.0,81,0.00,,,0.00,Wunderground v.1.15,2013-02-18 19:45:00,
2013-02-18 11:50:00,38.7,33.4,29.94,West,277,0.0,4.0,81,0.00,,,0.00,Wunderground v.1.15,2013-02-18 19:50:00,
2013-02-18 12:00:00,39.7,35.3,29.94,NE,55,1.0,4.0,84,0.00,,,0.00,Wunderground v.1.15,2013-02-18 20:00:00,
2013-02-18 12:05:00,39.9,35.8,29.94,SE,128,1.0,4.0,85,0.00,,,0.00,Wunderground v.1.15,2013-02-18 20:05:00,
2013-02-18 12:10:00,40.0,35.3,29.94,SE,136,2.0,2.0,83,0.00,,,0.00,Wunderground v.1.15,2013-02-18 20:10:00,
2013-02-18 12:15:00,40.3,35.5,29.93,SSW,210,1.0,4.0,83,0.00,,,0.00,Wunderground v.1.15,2013-02-18 20:15:00,
2013-02-18 12:20:00,40.6,35.8,29.93,SW,226,1.0,4.0,83,0.00,,,0.00,Wunderground v.1.15,2013-02-18 20:20:00,
2013-02-18 12:25:00,40.9,36.1,29.93,West,259,1.0,4.0,83,0.00,,,0.00,Wunderground v.1.15,2013-02-18 20:25:00,
2013-02-18 12:30:00,41.2,36.1,29.93,ENE,70,1.0,1.0,82,0.00,,,0.00,Wunderground v.1.15,2013-02-18 20:30:00,
2013-02-18 12:35:00,41.6,36.2,29.93,SW,224,1.0,4.0,81,0.00,,,0.00,Wunderground v.1.15,2013-02-18 20:35:00,
2013-02-18 12:40:00,42.1,37.0,29.93,ENE,72,1.0,4.0,82,0.00,,,0.00,Wunderground v.1.15,2013-02-18 20:40:00,
2013-02-18 12:45:00,42.2,36.2,29.92,SE,134,1.0,4.0,79,0.00,,,0.00,Wunderground v.1.15,2013-02-18 20:45:00,
2013-02-18 12:50:00,42.5,37.1,29.92,North,353,1.0,1.0,81,0.00,,,0.00,Wunderground v.1.15,2013-02-18 20:50:00,
2013-02-18 12:55:00,42.4,36.3,29.92,NE,45,1.0,4.0,79,0.00,,,0.00,Wunderground v.1.15,2013-02-18 20:55:00,
2013-02-18 13:00:00,42.4,36.3,29.92,SW,217,1.0,4.0,79,0.00,,,0.00,Wunderground v.1.15,2013-02-18 21:00:00,
2013-02-18 13:05:00,42.4,36.3,29.91,WNW,292,1.0,4.0,79,0.00,,,0.00,Wunderground v.1.15,2013-02-18 21:05:00,
2013-02-18 13:10:00,42.4,36.7,29.91,SW,218,1.0,4.0,80,0.00,,,0.00,Wunderground v.1.15,2013-02-18 21:10:00,
2013-02-18 13:15:00,42.3,36.9,29.91,North,11,1.0,4.0,81,0.00,,,0.00,Wunderground v.1.15,2013-02-18 21:15:00,
2013-02-18 13:20:00,42.5,37.4,29.91,WSW,240,1.0,4.0,82,0.00,,,0.00,Wunderground v.1.15,2013-02-18 21:20:00,
2013-02-18 13:25:00,42.4,37.0,29.91,WSW,246,1.0,4.0,81,0.00,,,0.00,Wunderground v.1.15,2013-02-18 21:25:00,
2013-02-18 13:30:00,42.4,37.0,29.91,ENE,58,1.0,4.0,81,0.00,,,0.00,Wunderground v.1.15,2013-02-18 21:30:00,
2013-02-18 13:35:00,42.6,36.9,29.91,SSE,166,2.0,4.0,80,0.00,,,0.00,Wunderground v.1.15,2013-02-18 21:35:00,
2013-02-18 13:40:00,42.7,37.0,29.91,West,277,1.0,1.0,80,0.00,,,0.00,Wunderground v.1.15,2013-02-18 21:40:00,
2013-02-18 13:45:00,42.8,37.7,29.91,SW,232,1.0,4.0,82,0.00,,,0.00,Wunderground v.1.15,2013-02-18 21:45:00,
2013-02-18 13:50:00,43.3,38.2,29.91,SW,229,0.0,4.0,82,0.00,,,0.00,Wunderground v.1.15,2013-02-18 21:50:00,
2013-02-18 13:55:00,44.0,38.5,29.90,SSW,197,0.0,4.0,81,0.00,,,0.00,Wunderground v.1.15,2013-02-18 21:55:00,
2013-02-18 14:00:00,44.5,38.4,29.90,NNE,18,1.0,1.0,79,0.00,,,0.00,Wunderground v.1.15,2013-02-18 22:00:00,
2013-02-18 14:05:00,44.6,37.5,29.90,NNE,30,1.0,4.0,76,0.00,,,0.00,Wunderground v.1.15,2013-02-18 22:05:00,
2013-02-18 14:10:00,44.7,38.3,29.90,WSW,238,1.0,4.0,78,0.00,,,0.00,Wunderground v.1.15,2013-02-18 22:10:00,
2013-02-18 14:15:00,44.9,38.5,29.90,South,179,2.0,4.0,78,0.00,,,0.00,Wunderground v.1.15,2013-02-18 22:15:00,
2013-02-18 14:20:00,44.8,38.0,29.90,SW,217,2.0,4.0,77,0.00,,,0.00,Wunderground v.1.15,2013-02-18 22:20:00,
2013-02-18 14:25:00,44.6,37.2,29.89,NE,56,2.0,4.0,75,0.00,,,0.00,Wunderground v.1.15,2013-02-18 22:25:00,
2013-02-18 14:30:00,44.3,37.5,29.89,NE,43,1.0,4.0,77,0.00,,,0.00,Wunderground v.1.15,2013-02-18 22:30:00,
2013-02-18 14:35:00,44.1,37.0,29.89,NNE,23,1.0,4.0,76,0.00,,,0.00,Wunderground v.1.15,2013-02-18 22:35:00,
2013-02-18 14:40:00,43.9,37.2,29.89,ESE,113,1.0,1.0,77,0.00,,,0.00,Wunderground v.1.15,2013-02-18 22:40:00,
2013-02-18 14:45:00,44.0,37.3,29.89,ESE,113,1.0,4.0,77,0.00,,,0.00,Wunderground v.1.15,2013-02-18 22:45:00,
2013-02-18 14:55:00,43.9,37.8,29.88,East,89,1.0,4.0,79,0.00,,,0.00,Wunderground v.1.15,2013-02-18 22:55:00,
2013-02-18 15:00:00,43.6,38.2,29.88,ESE,105,1.0,1.0,81,0.00,,,0.00,Wunderground v.1.15,2013-02-18 23:00:00,
2013-02-18 15:05:00,43.5,38.1,29.88,NNW,335,1.0,3.0,81,0.00,,,0.00,Wunderground v.1.15,2013-02-18 23:05:00,
2013-02-18 15:10:00,43.3,38.2,29.88,NNW,329,1.0,1.0,82,0.00,,,0.00,Wunderground v.1.15,2013-02-18 23:10:00,
2013-02-18 15:15:00,43.2,37.8,29.88,WNW,295,1.0,4.0,81,0.00,,,0.00,Wunderground v.1.15,2013-02-18 23:15:00,
2013-02-18 15:20:00,43.3,38.2,29.88,NW,304,1.0,4.0,82,0.00,,,0.00,Wunderground v.1.15,2013-02-18 23:20:00,
2013-02-18 15:25:00,43.3,37.9,29.88,North,357,0.0,4.0,81,0.00,,,0.00,Wunderground v.1.15,2013-02-18 23:25:00,
2013-02-18 15:30:00,43.3,37.2,29.87,SE,138,1.0,1.0,79,0.00,,,0.00,Wunderground v.1.15,2013-02-18 23:30:00,
2013-02-18 15:35:00,43.4,38.0,29.87,East,101,0.0,4.0,81,0.00,,,0.00,Wunderground v.1.15,2013-02-18 23:35:00,
2013-02-18 15:40:00,43.4,38.0,29.87,NNE,15,0.0,4.0,81,0.00,,,0.00,Wunderground v.1.15,2013-02-18 23:40:00,
2013-02-18 15:45:00,43.3,37.9,29.87,ESE,109,1.0,4.0,81,0.00,,,0.00,Wunderground v.1.15,2013-02-18 23:45:00,
2013-02-18 15:55:00,43.3,37.9,29.87,ENE,70,0.0,4.0,81,0.00,,,0.00,Wunderground v.1.15,2013-02-18 23:55:00,
2013-02-18 16:00:00,43.2,37.8,29.86,North,357,0.0,4.0,81,0.00,,,0.00,Wunderground v.1.15,2013-02-19 00:00:00,
2013-02-18 16:05:00,43.0,37.9,29.86,SSE,159,1.0,4.0,82,0.00,,,0.00,Wunderground v.1.15,2013-02-19 00:05:00,
2013-02-18 16:10:00,42.9,37.5,29.86,SE,143,1.0,1.0,81,0.00,,,0.00,Wunderground v.1.15,2013-02-19 00:10:00,
2013-02-18 16:15:00,42.8,37.7,29.86,ESE,106,0.0,4.0,82,0.00,,,0.00,Wunderground v.1.15,2013-02-19 00:15:00,
2013-02-18 16:20:00,42.7,37.0,29.86,SSE,150,1.0,4.0,80,0.00,,,0.00,Wunderground v.1.15,2013-02-19 00:20:00,
2013-02-18 16:25:00,42.7,37.0,29.86,ESE,108,1.0,4.0,80,0.00,,,0.00,Wunderground v.1.15,2013-02-19 00:25:00,
2013-02-18 16:30:00,42.6,37.2,29.85,NNE,13,2.0,2.0,81,0.00,,,0.00,Wunderground v.1.15,2013-02-19 00:30:00,
2013-02-18 16:35:00,42.5,36.8,29.85,SSE,155,1.0,4.0,80,0.00,,,0.00,Wunderground v.1.15,2013-02-19 00:35:00,
2013-02-18 16:40:00,42.4,37.3,29.85,North,355,1.0,4.0,82,0.00,,,0.00,Wunderground v.1.15,2013-02-19 00:40:00,
2013-02-18 16:45:00,42.3,36.9,29.85,SE,138,1.0,4.0,81,0.00,,,0.00,Wunderground v.1.15,2013-02-19 00:45:00,
2013-02-18 16:50:00,42.2,37.1,29.85,ESE,108,1.0,4.0,82,0.00,,,0.00,Wunderground v.1.15,2013-02-19 00:50:00,
2013-02-18 16:55:00,42.2,37.4,29.84,SE,143,1.0,4.0,83,0.00,,,0.00,Wunderground v.1.15,2013-02-19 00:55:00,
2013-02-18 17:00:00,42.1,36.7,29.84,NNE,20,0.0,4.0,81,0.00,,,0.00,Wunderground v.1.15,2013-02-19 01:00:00,
2013-02-18 17:10:00,41.9,36.8,29.84,ENE,66,1.0,4.0,82,0.00,,,0.00,Wunderground v.1.15,2013-02-19 01:10:00,
2013-02-18 17:15:00,41.7,36.9,29.84,NW,307,1.0,4.0,83,0.00,,,0.00,Wunderground v.1.15,2013-02-19 01:15:00,
2013-02-18 17:25:00,41.3,36.5,29.83,East,82,1.0,4.0,83,0.00,,,0.00,Wunderground v.1.15,2013-02-19 01:25:00,
2013-02-18 17:30:00,41.2,36.4,29.83,SE,127,1.0,1.0,83,0.00,,,0.00,Wunderground v.1.15,2013-02-19 01:30:00,
2013-02-18 17:35:00,41.0,36.5,29.83,North,352,1.0,4.0,84,0.00,,,0.00,Wunderground v.1.15,2013-02-19 01:35:00,
2013-02-18 17:40:00,40.8,36.0,29.83,NNW,336,1.0,1.0,83,0.00,,,0.00,Wunderground v.1.15,2013-02-19 01:40:00,
2013-02-18 17:45:00,40.7,35.9,29.83,NNW,338,1.0,4.0,83,0.00,,,0.00,Wunderground v.1.15,2013-02-19 01:45:00,
2013-02-18 17:50:00,40.7,35.9,29.83,North,358,0.0,4.0,83,0.00,,,0.00,Wunderground v.1.15,2013-02-19 01:50:00,
2013-02-18 17:55:00,40.6,36.1,29.82,NNE,20,0.0,4.0,84,0.00,,,0.00,Wunderground v.1.15,2013-02-19 01:55:00,
2013-02-18 18:00:00,40.3,35.8,29.82,ESE,121,1.0,1.0,84,0.00,,,0.00,Wunderground v.1.15,2013-02-19 02:00:00,
2013-02-18 18:05:00,40.1,35.7,29.82,North,351,1.0,4.0,84,0.00,,,0.00,Wunderground v.1.15,2013-02-19 02:05:00,
2013-02-18 18:10:00,40.0,34.9,29.82,NNW,344,1.0,1.0,82,0.00,,,0.00,Wunderground v.1.15,2013-02-19 02:10:00,
2013-02-18 18:15:00,39.7,34.7,29.82,SSW,193,2.0,2.0,82,0.00,,,0.00,Wunderground v.1.15,2013-02-19 02:15:00,
2013-02-18 18:20:00,39.5,34.8,29.81,ESE,108,1.0,4.0,83,0.00,,,0.00,Wunderground v.1.15,2013-02-19 02:20:00,
2013-02-18 18:25:00,39.4,34.1,29.81,NE,34,1.0,4.0,81,0.00,,,0.00,Wunderground v.1.15,2013-02-19 02:25:00,
2013-02-18 18:30:00,39.2,33.9,29.81,SE,143,1.0,1.0,81,0.00,,,0.00,Wunderground v.1.15,2013-02-19 02:30:00,
2013-02-18 18:40:00,39.1,33.5,29.81,East,101,1.0,4.0,80,0.00,,,0.00,Wunderground v.1.15,2013-02-19 02:40:00,
2013-02-18 18:45:00,39.1,32.8,29.81,ENE,66,1.0,4.0,78,0.00,,,0.00,Wunderground v.1.15,2013-02-19 02:45:00,
2013-02-18 18:50:00,38.9,32.6,29.81,ENE,59,1.0,4.0,78,0.00,,,0.00,Wunderground v.1.15,2013-02-19 02:50:00,
2013-02-18 18:55:00,38.9,32.3,29.81,SSW,197,1.0,4.0,77,0.00,,,0.00,Wunderground v.1.15,2013-02-19 02:55:00,
2013-02-18 19:00:00,39.0,33.0,29.81,NW,326,1.0,1.0,79,0.00,,,0.00,Wunderground v.1.15,2013-02-19 03:00:00,
2013-02-18 19:05:00,38.9,32.6,29.81,WNW,290,1.0,4.0,78,0.00,,,0.00,Wunderground v.1.15,2013-02-19 03:05:00,
2013-02-18 19:10:00,39.0,32.7,29.81,East,86,1.0,4.0,78,0.00,,,0.00,Wunderground v.1.15,2013-02-19 03:10:00,
2013-02-18 19:15:00,38.9,32.0,29.81,NNW,332,1.0,4.0,76,0.00,,,0.00,Wunderground v.1.15,2013-02-19 03:15:00,
2013-02-18 19:20:00,38.9,32.0,29.80,NNW,330,2.0,2.0,76,0.00,,,0.00,Wunderground v.1.15,2013-02-19 03:20:00,
2013-02-18 19:25:00,38.9,32.3,29.80,SSE,167,2.0,4.0,77,0.00,,,0.00,Wunderground v.1.15,2013-02-19 03:25:00,
2013-02-18 19:30:00,38.9,32.0,29.80,NNW,347,1.0,4.0,76,0.00,,,0.00,Wunderground v.1.15,2013-02-19 03:30:00,
2013-02-18 19:35:00,38.9,32.3,29.80,West,281,1.0,4.0,77,0.00,,,0.00,Wunderground v.1.15,2013-02-19 03:35:00,
2013-02-18 19:40:00,39.0,32.7,29.80,NNW,338,2.0,2.0,78,0.00,,,0.00,Wunderground v.1.15,2013-02-19 03:40:00,
2013-02-18 19:45:00,39.0,32.4,29.80,North,353,2.0,4.0,77,0.00,,,0.00,Wunderground v.1.15,2013-02-19 03:45:00,
2013-02-18 19:55:00,38.7,31.1,29.80,NNW,332,1.0,4.0,74,0.00,,,0.00,Wunderground v.1.15,2013-02-19 03:55:00,
2013-02-18 20:00:00,38.6,30.7,29.79,NE,37,1.0,1.0,73,0.00,,,0.00,Wunderground v.1.15,2013-02-19 04:00:00,
2013-02-18 20:05:00,38.4,30.8,29.79,NNE,25,1.0,4.0,74,0.00,,,0.00,Wunderground v.1.15,2013-02-19 04:05:00,
2013-02-18 20:10:00,38.3,30.7,29.79,ENE,63,1.0,1.0,74,0.00,,,0.00,Wunderground v.1.15,2013-02-19 04:10:00,
2013-02-18 20:20:00,38.3,31.7,29.79,NE,49,1.0,4.0,77,0.00,,,0.00,Wunderground v.1.15,2013-02-19 04:20:00,
2013-02-18 20:25:00,38.2,31.3,29.79,North,9,2.0,4.0,76,0.00,,,0.00,Wunderground v.1.15,2013-02-19 04:25:00,
2013-02-18 20:30:00,38.2,31.3,29.79,NNE,19,2.0,2.0,76,0.00,,,0.00,Wunderground v.1.15,2013-02-19 04:30:00,
2013-02-18 20:35:00,38.3,31.1,29.79,ENE,73,2.0,4.0,75,0.00,,,0.00,Wunderground v.1.15,2013-02-19 04:35:00,
2013-02-18 20:40:00,38.3,30.7,29.79,NNW,330,3.0,3.0,74,0.00,,,0.00,Wunderground v.1.15,2013-02-19 04:40:00,
2013-02-18 20:45:00,38.4,31.2,29.79,NNW,340,3.0,4.0,75,0.00,,,0.00,Wunderground v.1.15,2013-02-19 04:45:00,
2013-02-18 20:55:00,38.3,30.4,29.79,North,354,2.0,4.0,73,0.00,,,0.00,Wunderground v.1.15,2013-02-19 04:55:00,
2013-02-18 21:00:00,38.3,30.7,29.79,NE,55,2.0,4.0,74,0.00,,,0.00,Wunderground v.1.15,2013-02-19 05:00:00,
2013-02-18 21:05:00,38.3,30.4,29.79,NNE,21,2.0,4.0,73,0.00,,,0.00,Wunderground v.1.15,2013-02-19 05:05:00,
2013-02-18 21:15:00,38.2,29.3,29.78,North,11,1.0,4.0,70,0.00,,,0.00,Wunderground v.1.15,2013-02-19 05:15:00,
2013-02-18 21:20:00,38.1,29.9,29.78,North,5,1.0,4.0,72,0.00,,,0.00,Wunderground v.1.15,2013-02-19 05:20:00,
2013-02-18 21:25:00,38.2,30.0,29.78,North,355,2.0,4.0,72,0.00,,,0.00,Wunderground v.1.15,2013-02-19 05:25:00,
2013-02-18 21:30:00,38.2,30.3,29.78,WNW,295,2.0,2.0,73,0.00,,,0.00,Wunderground v.1.15,2013-02-19 05:30:00,
2013-02-18 21:35:00,38.3,30.7,29.78,NW,326,2.0,4.0,74,0.00,,,0.00,Wunderground v.1.15,2013-02-19 05:35:00,
2013-02-18 21:40:00,38.2,31.0,29.78,West,281,2.0,2.0,75,0.00,,,0.00,Wunderground v.1.15,2013-02-19 05:40:00,
2013-02-18 21:50:00,38.1,30.5,29.78,NNE,26,2.0,4.0,74,0.00,,,0.00,Wunderground v.1.15,2013-02-19 05:50:00,
2013-02-18 21:55:00,38.0,30.4,29.78,ENE,60,2.0,4.0,74,0.00,,,0.00,Wunderground v.1.15,2013-02-19 05:55:00,
2013-02-18 22:00:00,37.8,29.9,29.78,North,352,2.0,4.0,73,0.00,,,0.00,Wunderground v.1.15,2013-02-19 06:00:00,
2013-02-18 22:05:00,37.7,29.5,29.78,NNW,343,2.0,4.0,72,0.00,,,0.00,Wunderground v.1.15,2013-02-19 06:05:00,
2013-02-18 22:10:00,37.5,28.6,29.77,NW,321,2.0,4.0,70,0.00,,,0.00,Wunderground v.1.15,2013-02-19 06:10:00,
2013-02-18 22:15:00,37.2,27.6,29.78,NNE,32,2.0,4.0,68,0.00,,,0.00,Wunderground v.1.15,2013-02-19 06:15:00,
2013-02-18 22:20:00,37.1,26.8,29.78,NNW,341,2.0,4.0,66,0.00,,,0.00,Wunderground v.1.15,2013-02-19 06:20:00,
2013-02-18 22:25:00,36.8,25.8,29.78,NW,323,2.0,4.0,64,0.00,,,0.00,Wunderground v.1.15,2013-02-19 06:25:00,
2013-02-18 22:30:00,36.8,24.6,29.77,WNW,301,2.0,2.0,61,0.00,,,0.00,Wunderground v.1.15,2013-02-19 06:30:00,
2013-02-18 22:35:00,36.7,22.9,29.77,North,7,1.0,4.0,57,0.00,,,0.00,Wunderground v.1.15,2013-02-19 06:35:00,
2013-02-18 22:40:00,36.7,21.2,29.77,NW,326,1.0,4.0,53,0.00,,,0.00,Wunderground v.1.15,2013-02-19 06:40:00,
2013-02-18 22:45:00,36.8,21.3,29.77,NE,40,2.0,4.0,53,0.00,,,0.00,Wunderground v.1.15,2013-02-19 06:45:00,
2013-02-18 22:50:00,37.0,22.3,29.77,North,355,2.0,4.0,55,0.00,,,0.00,Wunderground v.1.15,2013-02-19 06:50:00,
2013-02-18 22:55:00,37.0,23.2,29.76,West,277,2.0,4.0,57,0.00,,,0.00,Wunderground v.1.15,2013-02-19 06:55:00,
2013-02-18 23:00:00,37.1,24.1,29.76,NW,314,2.0,4.0,59,0.00,,,0.00,Wunderground v.1.15,2013-02-19 07:00:00,
2013-02-18 23:05:00,37.2,25.4,29.76,NE,40,2.0,4.0,62,0.00,,,0.00,Wunderground v.1.15,2013-02-19 07:05:00,
2013-02-18 23:10:00,37.3,26.6,29.76,NNE,31,2.0,4.0,65,0.00,,,0.00,Wunderground v.1.15,2013-02-19 07:10:00,
2013-02-18 23:15:00,37.3,27.0,29.76,North,11,2.0,4.0,66,0.00,,,0.00,Wunderground v.1.15,2013-02-19 07:15:00,
2013-02-18 23:20:00,37.3,27.7,29.76,NE,42,2.0,4.0,68,0.00,,,0.00,Wunderground v.1.15,2013-02-19 07:20:00,
2013-02-18 23:25:00,37.3,28.4,29.76,NE,45,2.0,4.0,70,0.00,,,0.00,Wunderground v.1.15,2013-02-19 07:25:00,
2013-02-18 23:30:00,37.4,29.2,29.76,SE,143,3.0,4.0,72,0.00,,,0.00,Wunderground v.1.15,2013-02-19 07:30:00,
2013-02-18 23:35:00,37.3,29.4,29.76,North,8,3.0,4.0,73,0.00,,,0.00,Wunderground v.1.15,2013-02-19 07:35:00,
2013-02-18 23:40:00,37.3,29.4,29.76,ENE,60,3.0,3.0,73,0.00,,,0.00,Wunderground v.1.15,2013-02-19 07:40:00,
2013-02-18 23:45:00,37.2,29.0,29.76,WNW,301,3.0,4.0,72,0.00,,,0.00,Wunderground v.1.15,2013-02-19 07:45:00,
2013-02-18 23:50:00,37.1,28.6,29.76,NNW,335,2.0,2.0,71,0.00,,,0.00,Wunderground v.1.15,2013-02-19 07:50:00,
2013-02-18 23:55:00,37.1,28.6,29.76,NE,37,3.0,3.0,71,0.00,,,0.00,Wunderground v.1.15,2013-02-19 07:55:00,